Tracking 19637 objects as of 18-Apr-2019
HD Live streaming from Space Station
objects crossing your sky now

THORAD DELTA 1 DEB

Track THORAD DELTA 1 DEB now!
10-day predictions


NORAD ID: 8305
Int'l Code: 1974-089BN
Perigee: 1,460.5 km
Apogee: 1,609.7 km
Inclination: 101.5 °
Period: 116.6 minutes
Semi major axis: 7906 km
RCS: 0.1471 m2 (medium)
Launch date: November 15, 1974
Source: United States (US)
Launch site: AIR FORCE WESTERN TEST RANGE (AFWTR)

Note: This is SATELLITE DEBRIS
aabbcc
Your satellite tracking list
Your tracking list is empty




NASA's NSSDC Master Catalog

Two Line Element Set (TLE):
1  8305U 74089BN  19107.86933684 +.00000015 +00000-0 +43711-3 0  9994
2  8305 101.4968 073.4463 0094319 129.9229 287.7620 12.34979928002204
Source of the keplerian elements: AFSPC